GW6830 Weather Reports


time (UTC)temp
C
wind
direction
speed
KPH
gust
KPH
rain 1hr
cm
rain 24hr
cm
rain mn
cm
humidity
%
barometer
mb
20260505200552 12 97 3.2 14.5 0.00 0.00 0.00 99 1007.6
20260505200051 12 135 6.4 14.5 0.00 0.00 0.00 99 1006.9
20260505195552 12 155 6.4 14.5 0.00 0.00 0.00 99 1007.0
20260505195051 12 146 6.4 12.9 0.00 0.00 0.00 99 1007.4
20260505194552 12 114 4.8 12.9 0.00 0.00 0.00 99 1007.4
20260505194051 12 109 1.6 19.3 0.00 0.00 0.00 99 1007.3
20260505193552 12 135 8.0 17.7 0.00 0.00 0.00 99 1007.2
20260505193051 12 168 6.4 20.9 0.00 0.00 0.00 99 1007.5
20260505192551 12 136 3.2 12.9 0.00 0.00 0.00 99 1007.8
20260505192052 12 148 6.4 12.9 0.00 0.00 0.00 99 1008.0
20260505191551 12 160 6.4 12.9 0.00 0.00 0.00 99 1007.8
20260505191050 12 165 6.4 12.9 0.00 0.00 0.00 99 1007.7
20260505190549 12 119 6.4 11.3 0.00 0.00 0.00 99 1007.5
20260505190050 12 118 4.8 14.5 0.00 0.00 0.00 99 1007.7
20260505185551 12 110 1.6 8.0 0.00 0.00 0.00 99 1007.5
20260505185051 12 100 3.2 9.7 0.00 0.00 0.00 99 1007.4
20260505184550 13 72 3.2 14.5 0.00 0.00 0.00 99 1007.3
20260505184051 13 113 3.2 12.9 0.00 0.00 0.00 99 1006.9
20260505183551 13 135 4.8 16.1 0.00 0.00 0.00 99 1006.8
20260505183050 13 139 8.0 14.5 0.00 0.00 0.00 99 1006.9
20260505182552 13 145 4.8 12.9 0.00 0.00 0.00 99 1007.3
20260505182052 13 157 4.8 16.1 0.00 0.00 0.00 99 1007.1
20260505181549 13 52 1.6 9.7 0.00 0.00 0.00 99 1007.1
20260505181054 13 107 1.6 8.0 0.00 0.00 0.00 99 1007.1
20260505180553 13 138 4.8 14.5 0.00 0.00 0.00 99 1007.1
20260505180052 14 137 8.0 14.5 0.00 0.00 0.00 99 1007.0
20260505175551 14 33 3.2 8.0 0.00 0.00 0.00 99 1007.1
20260505175050 15 58 3.2 9.7 0.00 0.00 0.00 99 1007.0
20260505174552 15 71 1.6 14.5 0.00 0.00 0.00 99 1006.8
20260505174050 15 119 3.2 12.9 0.00 0.00 0.00 99 1006.8
20260505173551 15 127 3.2 9.7 0.00 0.00 0.00 99 1006.8
20260505173056 15 90 0.0 9.7 0.00 0.00 0.00 99 1006.8
20260505172549 15 120 3.2 8.0 0.00 0.00 0.00 99 1006.7
20260505172049 15 130 3.2 8.0 0.00 0.00 0.00 99 1006.7
20260505171551 15 142 3.2 9.7 0.00 0.00 0.00 99 1006.8
20260505171051 15 126 3.2 12.9 0.00 0.00 0.00 99 1007.0
20260505170550 15 158 6.4 9.7 0.00 0.00 0.00 99 1006.9
20260505170050 16 145 3.2 6.4 0.00 0.00 0.00 99 1007.0
20260505165551 16 54 0.0 4.8 0.00 0.00 0.00 99 1006.9
20260505165053 16 45 1.6 6.4 0.00 0.00 0.00 99 1006.7
20260505164551 16 135 3.2 8.0 0.00 0.00 0.00 99 1006.7
20260505164052 16 132 3.2 9.7 0.00 0.00 0.00 99 1006.7
20260505163552 16 151 3.2 9.7 0.00 0.00 0.00 99 1006.7
20260505163052 16 147 3.2 8.0 0.00 0.00 0.00 99 1006.6
20260505162549 16 145 4.8 9.7 0.00 0.00 0.00 99 1006.6
20260505162052 16 147 3.2 11.3 0.00 0.00 0.00 99 1006.6
20260505161552 16 176 3.2 9.7 0.00 0.00 0.00 99 1006.6
20260505161053 17 167 4.8 9.7 0.00 0.00 0.00 99 1006.5
20260505160552 17 149 4.8 11.3 0.00 0.00 0.00 99 1006.5
20260505153052 17 160 3.2 9.7 0.00 0.00 0.00 99 1006.1
20260505152554 17 152 4.8 11.3 0.00 0.00 0.00 98 1006.1
20260505152052 17 187 4.8 11.3 0.00 0.00 0.00 97 1006.2
20260505151551 17 183 6.4 12.9 0.00 0.00 0.00 98 1006.5
20260505151052 17 146 4.8 12.9 0.00 0.00 0.00 100 1006.4
20260505150550 17 114 3.2 14.5 0.00 0.00 0.00 100 1006.5
20260505140551 16 128 0.0 4.8 0.00 0.00 0.00 99 1007.1
20260505124551 15 164 1.6 3.2 0.00 0.00 0.00 99 1006.5
20260505124052 15 273 1.6 3.2 0.00 0.00 0.00 99 1006.4
20260505123551 15 169 1.6 6.4 0.00 0.00 0.00 99 1006.2
20260505123051 15 148 3.2 6.4 0.00 0.00 0.00 99 1006.3
20260505122550 15 115 1.6 6.4 0.00 0.00 0.00 99 1006.2
20260505122049 15 138 4.8 6.4 0.00 0.00 0.00 99 1006.1
20260505121551 15 63 1.6 3.2 0.00 0.00 0.00 99 1006.3
20260505121052 15 45 1.6 8.0 0.00 0.00 0.00 99 1006.3
20260505120551 15 134 4.8 8.0 0.00 0.00 0.00 99 1006.1
20260505120051 15 132 4.8 4.8 0.00 0.00 0.00 99 1005.9
20260505115552 15 28 0.0 3.2 0.00 0.00 0.00 99 1005.4
20260505115051 15 296 0.0 3.2 0.00 0.00 0.00 99 1005.2
20260505114551 15 0 0.0 1.6 0.00 0.00 0.00 99 1005.0
20260505114049 15 0 0.0 3.2 0.00 0.00 0.00 99 1005.1
20260505113551 15 335 1.6 3.2 0.00 0.00 0.00 99 1005.1
20260505113050 15 130 1.6 3.2 0.00 0.00 0.00 99 1005.1
20260505112549 15 322 1.6 3.2 0.00 0.00 0.00 99 1005.3
20260505112051 15 348 1.6 4.8 0.00 0.00 0.00 99 1005.4
20260505111551 15 269 3.2 4.8 0.00 0.00 0.00 99 1005.1
20260505111049 15 8 3.2 6.4 0.00 0.00 0.00 99 1005.4
20260505110552 15 56 1.6 3.2 0.00 0.00 0.00 99 1005.1
20260505102049 15 297 3.2 9.7 0.00 0.00 0.00 99 1005.9
20260505101552 15 291 4.8 11.3 0.00 0.00 0.00 99 1006.0
20260505101050 15 326 6.4 11.3 0.00 0.00 0.00 99 1006.0
20260505100550 15 320 3.2 6.4 0.00 0.00 0.00 99 1005.8
20260505100051 15 214 3.2 4.8 0.00 0.00 0.00 99 1005.7
20260505095552 15 340 3.2 9.7 0.00 0.00 0.00 99 1006.2
20260505095052 15 246 4.8 6.4 0.00 0.00 0.00 99 1005.8
20260505094550 15 323 3.2 4.8 0.00 0.00 0.00 99 1006.5
20260505094049 15 300 3.2 4.8 0.00 0.00 0.00 99 1006.3
20260505093550 15 303 1.6 3.2 0.00 0.00 0.00 99 1006.4
20260505093051 15 299 1.6 3.2 0.00 0.00 0.00 99 1006.3
20260505092551 15 226 0.0 4.8 0.00 0.00 0.00 99 1006.5
20260505092051 15 170 3.2 8.0 0.00 0.00 0.00 99 1006.2
20260505091551 15 159 4.8 8.0 0.00 0.00 0.00 99 1006.2
20260505091052 15 41 0.0 6.4 0.00 0.00 0.00 99 1006.2
20260505090549 15 178 4.8 6.4 0.00 0.00 0.00 99 1006.1
20260505090051 15 60 0.0 3.2 0.00 0.00 0.00 99 1007.2
20260505085550 15 115 0.0 3.2 0.00 0.00 0.00 99 1006.5
20260505085051 15 44 3.2 4.8 0.00 0.00 0.00 99 1006.4
20260505084549 15 214 3.2 6.4 0.00 0.00 0.00 99 1005.8
20260505084050 15 336 1.6 3.2 0.00 0.00 0.00 99 1006.5
20260505083549 15 0 0.0 3.2 0.00 0.00 0.00 99 1006.6
20260505083049 15 334 0.0 3.2 0.00 0.00 0.00 99 1006.6
20260505082551 15 295 1.6 3.2 0.00 0.00 0.00 99 1006.7
20260505082053 15 0 0.0 1.6 0.00 0.00 0.00 99 1006.9
20260505081553 15 40 0.0 4.8 0.00 0.00 0.00 99 1006.6
20260505081049 15 46 0.0 6.4 0.00 0.00 0.00 99 1006.6
20260505080551 15 10 4.8 8.0 0.00 0.00 0.00 99 1007.1
20260505080049 15 354 6.4 8.0 0.00 0.00 0.00 99 1007.3
20260505075551 15 7 3.2 4.8 0.00 0.00 0.00 99 1007.1
20260505075049 15 0 0.0 0.0 0.00 0.00 0.00 99 1006.8
20260505074551 15 0 0.0 4.8 0.00 0.00 0.00 99 1007.1
20260505074053 15 329 1.6 3.2 0.00 0.00 0.00 99 1007.1
20260505073550 15 320 1.6 3.2 0.00 0.00 0.00 99 1006.9
20260505073051 15 4 1.6 6.4 0.00 0.00 0.00 99 1006.7
20260505072549 15 37 3.2 6.4 0.00 0.00 0.00 100 1007.0
20260505072051 15 334 3.2 4.8 0.00 0.00 0.00 100 1006.7
20260505071551 15 339 1.6 4.8 0.00 0.00 0.00 100 1006.7
20260505071051 16 31 0.0 4.8 0.00 0.00 0.00 99 1006.7
20260505070551 16 35 1.6 3.2 0.00 0.00 0.00 96 1006.8
20260505070050 16 0 0.0 0.0 0.00 0.00 0.00 94 1006.2
20260505065550 17 0 0.0 4.8 0.00 0.00 0.00 91 1006.1
20260505065052 17 21 1.6 4.8 0.00 0.00 0.00 87 1006.2
20260505064552 17 320 3.2 6.4 0.00 0.00 0.00 84 1006.2
20260505064049 17 347 1.6 4.8 0.00 0.00 0.00 82 1006.3
20260505063551 17 330 3.2 6.4 0.00 0.00 0.00 81 1006.3
20260505063052 18 348 3.2 4.8 0.00 0.00 0.00 79 1006.4
20260505062551 18 359 3.2 8.0 0.00 0.00 0.00 79 1006.5
20260505062050 18 327 3.2 8.0 0.00 0.00 0.00 78 1006.4
20260505061552 18 315 3.2 6.4 0.00 0.00 0.00 77 1006.5
20260505061049 18 338 1.6 6.4 0.00 0.00 0.00 77 1006.6
20260505060551 18 322 1.6 6.4 0.00 0.00 0.00 76 1006.6
20260505060051 18 338 1.6 6.4 0.00 0.00 0.00 75 1006.8
20260505055550 18 330 3.2 6.4 0.00 0.00 0.00 75 1006.7
20260505055049 18 331 1.6 6.4 0.00 0.00 0.00 75 1006.7
20260505054550 18 304 3.2 6.4 0.00 0.00 0.00 74 1006.7
20260505054050 18 310 3.2 6.4 0.00 0.00 0.00 74 1006.7
20260505053549 18 277 0.0 6.4 0.00 0.00 0.00 75 1006.7
20260505053049 18 277 3.2 12.9 0.00 0.00 0.00 74 1006.5
20260505052549 18 252 3.2 8.0 0.00 0.00 0.00 74 1006.3
20260505052049 18 231 1.6 4.8 0.00 0.00 0.00 75 1006.1
20260505051550 18 231 1.6 9.7 0.00 0.00 0.00 74 1006.2
20260505051050 18 302 1.6 8.0 0.00 0.00 0.00 75 1006.3
20260505050549 18 336 1.6 9.7 0.00 0.00 0.00 74 1006.5
20260505041550 19 314 3.2 11.3 0.00 0.00 0.00 72 1006.9
20260505041049 19 265 3.2 11.3 0.00 0.00 0.00 72 1007.1
20260505040551 19 303 1.6 4.8 0.00 0.00 0.00 72 1007.1
20260505040052 19 0 1.6 9.7 0.00 0.00 0.00 71 1007.2
20260505035551 19 297 1.6 6.4 0.00 0.00 0.00 71 1007.2
20260505035049 19 327 1.6 9.7 0.00 0.00 0.00 71 1007.2
20260505034549 19 248 4.8 8.0 0.00 0.00 0.00 71 1007.2
20260505034049 19 350 1.6 11.3 0.00 0.00 0.00 70 1007.3
20260505033550 20 340 3.2 9.7 0.00 0.00 0.00 70 1007.3
20260505033049 20 255 4.8 9.7 0.00 0.00 0.00 69 1007.3
20260505032549 20 233 3.2 8.0 0.00 0.00 0.00 69 1007.4
20260505032050 19 284 3.2 6.4 0.00 0.00 0.00 70 1007.5
20260505031549 19 253 3.2 6.4 0.00 0.00 0.00 70 1007.5
20260505031049 19 259 1.6 6.4 0.00 0.00 0.00 70 1007.5
20260505030551 19 317 0.0 4.8 0.00 0.00 0.00 71 1007.4
20260505030050 19 4 0.0 3.2 0.00 0.00 0.00 71 1007.4
20260505025549 19 225 0.0 4.8 0.00 0.00 0.00 71 1007.4
20260505025049 18 55 0.0 4.8 0.00 0.00 0.00 71 1007.4
20260505024550 18 231 0.0 3.2 0.00 0.00 0.00 73 1007.4
20260505024049 18 255 1.6 3.2 0.00 0.00 0.00 73 1007.3
20260505023550 18 270 0.0 3.2 0.00 0.00 0.00 73 1007.4
20260505023049 19 0 0.0 1.6 0.00 0.00 0.00 73 1007.4
20260505022549 19 0 0.0 3.2 0.00 0.00 0.00 72 1007.3
20260505022049 19 237 1.6 3.2 0.00 0.00 0.00 72 1007.1
20260505021551 20 274 0.0 3.2 0.00 0.00 0.00 71 1007.0
20260505021049 20 118 0.0 3.2 0.00 0.00 0.00 70 1006.9
20260505020549 20 340 0.0 3.2 0.00 0.00 0.00 69 1006.8
20260505020051 20 335 0.0 4.8 0.00 0.00 0.00 68 1006.7
20260505015549 20 339 3.2 4.8 0.00 0.00 0.00 67 1006.7
20260505015050 20 346 1.6 3.2 0.00 0.00 0.00 68 1006.6
20260505014550 20 0 0.0 1.6 0.00 0.00 0.00 66 1006.5
20260505014050 21 0 0.0 3.2 0.00 0.00 0.00 65 1006.5
20260505013549 21 347 1.6 4.8 0.00 0.00 0.00 64 1006.4
20260505013051 21 354 1.6 11.3 0.00 0.00 0.00 63 1006.4
20260505012549 21 0 3.2 11.3 0.00 0.00 0.00 63 1006.3
20260505012049 21 326 6.4 11.3 0.00 0.00 0.00 62 1006.2
20260505011552 21 323 3.2 11.3 0.00 0.00 0.00 61 1006.2
20260505011049 22 318 4.8 12.9 0.00 0.00 0.00 61 1006.2
20260505010551 22 315 8.0 17.7 0.00 0.00 0.00 60 1006.1
20260505010050 22 315 8.0 22.5 0.00 0.00 0.00 60 1006.0
20260505005549 22 313 9.7 16.1 0.00 0.00 0.00 60 1006.0
20260505005049 22 330 9.7 14.5 0.00 0.00 0.00 60 1006.0
20260505004549 22 329 6.4 14.5 0.00 0.00 0.00 60 1005.9
20260505004049 22 324 6.4 12.9 0.00 0.00 0.00 61 1005.9
20260505003550 22 320 8.0 14.5 0.00 0.00 0.00 60 1005.8
20260505003049 22 334 6.4 9.7 0.00 0.00 0.00 60 1005.7
20260505002549 23 323 4.8 9.7 0.00 0.00 0.00 60 1005.7
20260505002049 23 322 4.8 11.3 0.00 0.00 0.00 59 1005.6
20260505001550 23 309 4.8 8.0 0.00 0.00 0.00 59 1005.6
20260505001049 23 325 6.4 14.5 0.00 0.00 0.00 58 1005.6
20260505000549 23 318 8.0 14.5 0.00 0.00 0.00 58 1005.6
20260505000052 23 295 3.2 11.3 0.00 0.00 0.00 58 1005.6
20260504235549 23 341 3.2 12.9 0.00 0.00 0.00 58 1005.7
20260504235049 24 319 6.4 12.9 0.00 0.00 0.00 56 1005.6
20260504234549 24 240 3.2 14.5 0.00 0.00 0.00 57 1005.6
20260504234050 24 327 8.0 14.5 0.00 0.00 0.00 56 1005.4
20260504233551 24 330 3.2 12.9 0.00 0.00 0.00 55 1005.6
20260504233049 25 286 3.2 14.5 0.00 0.00 0.00 54 1005.6
20260504232549 25 315 6.4 12.9 0.00 0.00 0.00 54 1005.6
20260504232050 25 335 9.7 14.5 0.00 0.00 0.00 52 1005.6
20260504231552 25 263 3.2 9.7 0.00 0.00 0.00 53 1005.6
20260504231051 25 350 3.2 12.9 0.00 0.00 0.00 53 1005.6
20260504230549 25 343 8.0 12.9 0.00 0.00 0.00 52 1005.6
20260504230050 25 328 6.4 16.1 0.00 0.00 0.00 53 1005.7
20260504225550 25 352 8.0 14.5 0.00 0.00 0.00 53 1005.7
20260504225051 25 339 8.0 17.7 0.00 0.00 0.00 52 1005.7
20260504224549 25 330 6.4 14.5 0.00 0.00 0.00 51 1005.7
20260504224049 25 319 8.0 16.1 0.00 0.00 0.00 51 1005.7
20260504223550 25 320 6.4 14.5 0.00 0.00 0.00 51 1005.6
20260504223050 25 345 9.7 14.5 0.00 0.00 0.00 50 1005.9
20260504222551 25 343 4.8 16.1 0.00 0.00 0.00 50 1006.0
20260504222049 25 331 8.0 16.1 0.00 0.00 0.00 49 1005.9
20260504221551 26 327 9.7 19.3 0.00 0.00 0.00 49 1006.0
20260504221051 26 358 6.4 16.1 0.00 0.00 0.00 49 1006.1
20260504220549 26 324 9.7 17.7 0.00 0.00 0.00 48 1006.1
20260504220052 26 338 9.7 24.1 0.00 0.00 0.00 48 1006.1
20260504215551 26 325 8.0 16.1 0.00 0.00 0.00 47 1006.1
20260504215049 26 340 8.0 17.7 0.00 0.00 0.00 47 1006.1
20260504214550 26 331 8.0 16.1 0.00 0.00 0.00 47 1006.1
20260504214049 26 352 6.4 17.7 0.00 0.00 0.00 46 1006.0
20260504213549 26 344 6.4 19.3 0.00 0.00 0.00 47 1006.2
20260504213051 26 343 9.7 20.9 0.00 0.00 0.00 46 1006.2
20260504212550 26 320 11.3 19.3 0.00 0.00 0.00 47 1006.1
20260504212052 26 327 9.7 22.5 0.00 0.00 0.00 46 1006.1
20260504211552 26 339 9.7 17.7 0.00 0.00 0.00 46 1006.1
20260504211049 26 341 9.7 17.7 0.00 0.00 0.00 46 1006.2
20260504210552 26 324 11.3 20.9 0.00 0.00 0.00 46 1006.3
20260504210051 26 334 6.4 17.7 0.00 0.00 0.00 46 1006.3
20260504205550 26 318 9.7 19.3 0.00 0.00 0.00 47 1006.4
20260504205051 26 333 4.8 17.7 0.00 0.00 0.00 48 1006.4
20260504204552 27 333 6.4 17.7 0.00 0.00 0.00 47 1006.5
20260504204049 27 340 9.7 17.7 0.00 0.00 0.00 46 1006.5
20260504203551 27 316 11.3 17.7 0.00 0.00 0.00 47 1006.5
20260504203051 26 355 8.0 17.7 0.00 0.00 0.00 48 1006.6
20260504202550 26 331 6.4 16.1 0.00 0.00 0.00 47 1006.7
20260504202049 26 346 9.7 20.9 0.00 0.00 0.00 47 1006.8
20260504201550 26 331 11.3 19.3 0.00 0.00 0.00 47 1006.7
20260504201051 26 327 8.0 20.9 0.00 0.00 0.00 47 1006.9